Location: Madrid
(40.4000°N, 3.6830°W)
Time: 21:09:51
(UTC+01:00)

ISS - Pass Details

Date: 29 March 2017
Orbit: 399 x 409 km, 51.6° (Epoch: 24 March)

Event Time Altitude Azimuth Distance (km) Brightness Sun altitude
Rises 23:13:53 0° 279° (W) 2,311 1.0 -28.8°
Reaches altitude 10° 23:16:31 10° 302° (WNW) 1,456 -0.1 -29.3°
Enters shadow 23:17:35 14° 319° (NW) 1,227 -0.6 -29.4°
